| time (UTC) | temp F | wind direction | speed knots | gust knots | rain 1hr in | rain 24hr in | rain mn in | humidity % | barometer mb |
| 20260510135005 | 53 | 32 | 5.2 | 11.3 | 0.00 | 0.00 | 0.00 | 72 | 1015.5 |
| 20260510133003 | 53 | 48 | 5.2 | 11.3 | 0.00 | 0.00 | 0.00 | 72 | 1015.6 |
| 20260510132003 | 53 | 38 | 5.2 | 12.2 | 0.00 | 0.00 | 0.00 | 73 | 1015.6 |
| 20260510131003 | 53 | 46 | 5.2 | 12.2 | 0.00 | 0.00 | 0.00 | 73 | 1015.8 |
| 20260510130002 | 53 | 35 | 5.2 | 12.2 | 0.00 | 0.00 | 0.00 | 75 | 1015.8 |
| 20260510125003 | 53 | 50 | 5.2 | 14.8 | 0.00 | 0.00 | 0.00 | 75 | 1016.0 |
| 20260510124002 | 53 | 47 | 4.3 | 13.0 | 0.00 | 0.00 | 0.00 | 75 | 1016.0 |
| 20260510123003 | 53 | 47 | 5.2 | 13.9 | 0.00 | 0.00 | 0.00 | 75 | 1016.0 |
| 20260510122003 | 53 | 48 | 6.1 | 12.2 | 0.00 | 0.00 | 0.00 | 76 | 1016.1 |
| 20260510120003 | 53 | 47 | 5.2 | 14.8 | 0.00 | 0.00 | 0.00 | 77 | 1016.2 |
| 20260510115003 | 52 | 36 | 5.2 | 13.0 | 0.00 | 0.00 | 0.00 | 78 | 1016.3 |
| 20260510114003 | 53 | 63 | 5.2 | 13.0 | 0.00 | 0.00 | 0.00 | 78 | 1016.4 |
| 20260510113003 | 52 | 59 | 5.2 | 13.0 | 0.00 | 0.00 | 0.00 | 79 | 1016.5 |
| 20260510112003 | 52 | 41 | 6.1 | 12.2 | 0.00 | 0.00 | 0.00 | 80 | 1016.6 |
| 20260510111002 | 52 | 53 | 5.2 | 13.0 | 0.00 | 0.00 | 0.00 | 79 | 1016.7 |
| 20260510105003 | 53 | 41 | 6.1 | 13.0 | 0.00 | 0.00 | 0.00 | 78 | 1016.8 |
| 20260510103003 | 53 | 32 | 6.1 | 14.8 | 0.00 | 0.00 | 0.00 | 76 | 1016.7 |
| 20260510102003 | 53 | 46 | 7.0 | 16.5 | 0.00 | 0.00 | 0.00 | 76 | 1016.7 |
| 20260510100003 | 54 | 62 | 6.1 | 13.0 | 0.00 | 0.00 | 0.00 | 75 | 1016.8 |
| 20260510095003 | 53 | 66 | 7.0 | 15.6 | 0.00 | 0.00 | 0.00 | 76 | 1016.7 |
| 20260510094003 | 53 | 56 | 5.2 | 16.5 | 0.00 | 0.00 | 0.00 | 77 | 1016.8 |
| 20260510093003 | 54 | 53 | 7.0 | 14.8 | 0.00 | 0.00 | 0.00 | 79 | 1016.8 |
| 20260510092003 | 53 | 46 | 7.0 | 14.8 | 0.00 | 0.00 | 0.00 | 79 | 1016.9 |
| 20260510091002 | 53 | 47 | 7.0 | 13.9 | 0.00 | 0.00 | 0.00 | 78 | 1017.0 |
| 20260510090004 | 52 | 47 | 6.1 | 18.2 | 0.00 | 0.00 | 0.00 | 80 | 1017.2 |
| 20260510085003 | 51 | 45 | 5.2 | 19.1 | 0.00 | 0.00 | 0.00 | 80 | 1017.2 |
| 20260510084002 | 51 | 53 | 5.2 | 12.2 | 0.00 | 0.00 | 0.00 | 81 | 1017.3 |
| 20260510083002 | 51 | 40 | 5.2 | 12.2 | 0.00 | 0.00 | 0.00 | 81 | 1017.3 |
| 20260510082003 | 51 | 53 | 5.2 | 15.6 | 0.00 | 0.00 | 0.00 | 81 | 1017.3 |
| 20260510081004 | 51 | 58 | 6.1 | 16.5 | 0.00 | 0.00 | 0.00 | 81 | 1017.3 |
| 20260510080002 | 51 | 48 | 6.1 | 13.0 | 0.00 | 0.00 | 0.00 | 82 | 1017.3 |
| 20260510075002 | 51 | 41 | 6.1 | 14.8 | 0.00 | 0.00 | 0.00 | 83 | 1017.2 |
| 20260510074002 | 50 | 51 | 5.2 | 13.9 | 0.00 | 0.00 | 0.00 | 84 | 1017.3 |
| 20260510073002 | 50 | 34 | 4.3 | 13.9 | 0.00 | 0.00 | 0.00 | 84 | 1017.3 |
| 20260510072003 | 50 | 34 | 5.2 | 13.0 | 0.00 | 0.00 | 0.00 | 85 | 1017.3 |
| 20260510071003 | 50 | 32 | 5.2 | 13.9 | 0.00 | 0.00 | 0.00 | 85 | 1017.2 |
| 20260510070002 | 50 | 40 | 4.3 | 13.0 | 0.00 | 0.00 | 0.00 | 86 | 1017.2 |
| 20260510065002 | 50 | 37 | 5.2 | 13.0 | 0.00 | 0.00 | 0.00 | 86 | 1017.1 |
| 20260510064003 | 49 | 44 | 3.5 | 14.8 | 0.00 | 0.00 | 0.00 | 87 | 1017.1 |
| 20260510063003 | 49 | 43 | 3.5 | 9.6 | 0.00 | 0.00 | 0.00 | 87 | 1017.0 |
| 20260510062003 | 49 | 35 | 5.2 | 11.3 | 0.00 | 0.00 | 0.00 | 88 | 1017.0 |
| 20260510061004 | 49 | 28 | 4.3 | 13.0 | 0.00 | 0.00 | 0.00 | 88 | 1017.0 |
| 20260510060003 | 49 | 34 | 3.5 | 12.2 | 0.00 | 0.00 | 0.00 | 88 | 1016.9 |
| 20260510055002 | 48 | 45 | 4.3 | 10.4 | 0.00 | 0.00 | 0.00 | 89 | 1016.9 |
| 20260510054003 | 48 | 34 | 5.2 | 13.0 | 0.00 | 0.00 | 0.00 | 89 | 1016.9 |
| 20260510053003 | 48 | 27 | 5.2 | 13.9 | 0.00 | 0.00 | 0.00 | 89 | 1016.9 |
| 20260510052003 | 48 | 26 | 4.3 | 13.9 | 0.00 | 0.00 | 0.00 | 89 | 1016.9 |
| 20260510051004 | 48 | 21 | 2.6 | 8.7 | 0.00 | 0.00 | 0.00 | 90 | 1016.9 |
| 20260510050003 | 48 | 33 | 3.5 | 9.6 | 0.00 | 0.00 | 0.00 | 90 | 1016.9 |
| 20260510045003 | 48 | 37 | 3.5 | 9.6 | 0.00 | 0.00 | 0.00 | 90 | 1016.8 |
| 20260510044003 | 48 | 34 | 4.3 | 12.2 | 0.00 | 0.00 | 0.00 | 90 | 1016.9 |
| 20260510043002 | 48 | 38 | 5.2 | 8.7 | 0.00 | 0.00 | 0.00 | 90 | 1016.8 |
| 20260510042003 | 48 | 29 | 4.3 | 13.0 | 0.00 | 0.00 | 0.00 | 90 | 1016.9 |
| 20260510041004 | 48 | 28 | 4.3 | 10.4 | 0.00 | 0.00 | 0.00 | 90 | 1017.0 |
| 20260510040004 | 48 | 26 | 4.3 | 13.0 | 0.00 | 0.00 | 0.00 | 90 | 1017.0 |
| 20260510032003 | 48 | 29 | 3.5 | 10.4 | 0.00 | 0.00 | 0.00 | 90 | 1017.2 |
| 20260510031003 | 48 | 34 | 5.2 | 9.6 | 0.00 | 0.00 | 0.00 | 90 | 1017.2 |
| 20260510030003 | 48 | 31 | 4.3 | 12.2 | 0.00 | 0.00 | 0.00 | 91 | 1017.2 |
| 20260510025003 | 48 | 13 | 4.3 | 9.6 | 0.00 | 0.00 | 0.00 | 91 | 1017.3 |
| 20260510024003 | 48 | 29 | 4.3 | 10.4 | 0.00 | 0.00 | 0.00 | 91 | 1017.3 |
| 20260510023003 | 48 | 17 | 4.3 | 11.3 | 0.00 | 0.00 | 0.00 | 91 | 1017.4 |
| 20260510021002 | 48 | 25 | 2.6 | 8.7 | 0.00 | 0.00 | 0.00 | 91 | 1017.4 |
| 20260510020002 | 48 | 18 | 2.6 | 8.7 | 0.00 | 0.00 | 0.00 | 91 | 1017.5 |
| 20260510015003 | 48 | 30 | 3.5 | 8.7 | 0.00 | 0.00 | 0.00 | 91 | 1017.5 |
| 20260510014004 | 48 | 25 | 3.5 | 9.6 | 0.00 | 0.00 | 0.00 | 90 | 1017.6 |
| 20260510013003 | 48 | 20 | 3.5 | 8.7 | 0.00 | 0.00 | 0.00 | 90 | 1017.4 |
| 20260510012003 | 48 | 24 | 3.5 | 9.6 | 0.00 | 0.00 | 0.00 | 90 | 1017.3 |
| 20260510005003 | 49 | 24 | 3.5 | 8.7 | 0.00 | 0.00 | 0.00 | 88 | 1017.4 |
| 20260510003003 | 49 | 34 | 3.5 | 12.2 | 0.00 | 0.00 | 0.00 | 87 | 1017.4 |
| 20260510002002 | 50 | 27 | 3.5 | 10.4 | 0.00 | 0.00 | 0.00 | 86 | 1017.5 |
| 20260510001003 | 50 | 14 | 4.3 | 11.3 | 0.00 | 0.00 | 0.00 | 84 | 1017.4 |
| 20260510000003 | 50 | 20 | 4.3 | 9.6 | 0.00 | 0.00 | 0.00 | 80 | 1017.5 |
| 20260509234002 | 51 | 41 | 3.5 | 8.7 | 0.00 | 0.00 | 0.00 | 71 | 1017.5 |
| 20260509233003 | 52 | 38 | 3.5 | 11.3 | 0.00 | 0.00 | 0.00 | 68 | 1017.4 |
| 20260509232003 | 53 | 34 | 2.6 | 9.6 | 0.00 | 0.00 | 0.00 | 66 | 1017.4 |
| 20260509231002 | 53 | 30 | 2.6 | 8.7 | 0.00 | 0.00 | 0.00 | 67 | 1017.4 |
| 20260509230003 | 54 | 36 | 2.6 | 7.0 | 0.00 | 0.00 | 0.00 | 66 | 1017.4 |
| 20260509225002 | 54 | 54 | 1.7 | 9.6 | 0.00 | 0.00 | 0.00 | 66 | 1017.3 |
| 20260509224003 | 54 | 39 | 0.9 | 4.3 | 0.00 | 0.00 | 0.00 | 65 | 1017.4 |
| 20260509223003 | 54 | 57 | 1.7 | 6.1 | 0.00 | 0.00 | 0.00 | 64 | 1017.2 |
| 20260509222002 | 55 | 43 | 0.9 | 5.2 | 0.00 | 0.00 | 0.00 | 63 | 1017.2 |
| 20260509221003 | 55 | 50 | 0.0 | 3.5 | 0.00 | 0.00 | 0.00 | 62 | 1017.4 |
| 20260509220004 | 56 | 57 | 0.0 | 2.6 | 0.00 | 0.00 | 0.00 | 61 | 1017.4 |
| 20260509215003 | 56 | 60 | 0.9 | 4.3 | 0.00 | 0.00 | 0.00 | 60 | 1017.2 |
| 20260509213003 | 57 | 27 | 0.9 | 2.6 | 0.00 | 0.00 | 0.00 | 58 | 1017.0 |
| 20260509212002 | 57 | 27 | 0.9 | 2.6 | 0.00 | 0.00 | 0.00 | 57 | 1016.8 |
| 20260509211003 | 57 | 0 | 0.0 | 3.5 | 0.00 | 0.00 | 0.00 | 56 | 1016.8 |
| 20260509210003 | 58 | 107 | 0.0 | 1.7 | 0.00 | 0.00 | 0.00 | 55 | 1016.9 |
| 20260509205003 | 58 | 108 | 0.9 | 3.5 | 0.00 | 0.00 | 0.00 | 55 | 1016.8 |
| 20260509204003 | 58 | 115 | 0.9 | 2.6 | 0.00 | 0.00 | 0.00 | 54 | 1016.8 |
| 20260509203003 | 58 | 94 | 0.9 | 3.5 | 0.00 | 0.00 | 0.00 | 54 | 1016.6 |
| 20260509202002 | 59 | 79 | 0.9 | 4.3 | 0.00 | 0.00 | 0.00 | 53 | 1016.6 |
| 20260509201003 | 59 | 90 | 1.7 | 3.5 | 0.00 | 0.00 | 0.00 | 52 | 1016.4 |
| 20260509200003 | 59 | 93 | 1.7 | 5.2 | 0.00 | 0.00 | 0.00 | 52 | 1016.3 |
| 20260509195004 | 60 | 81 | 1.7 | 5.2 | 0.00 | 0.00 | 0.00 | 51 | 1016.3 |
| 20260509194003 | 60 | 80 | 1.7 | 6.1 | 0.00 | 0.00 | 0.00 | 51 | 1016.1 |
| 20260509193003 | 61 | 82 | 1.7 | 7.0 | 0.00 | 0.00 | 0.00 | 50 | 1016.0 |
| 20260509192003 | 61 | 102 | 2.6 | 6.1 | 0.00 | 0.00 | 0.00 | 50 | 1015.9 |
| 20260509191003 | 62 | 104 | 3.5 | 9.6 | 0.00 | 0.00 | 0.00 | 50 | 1015.9 |
| 20260509190003 | 62 | 107 | 2.6 | 7.8 | 0.00 | 0.00 | 0.00 | 51 | 1015.9 |
| 20260509185004 | 63 | 108 | 3.5 | 7.0 | 0.00 | 0.00 | 0.00 | 51 | 1015.7 |
| 20260509184003 | 63 | 96 | 3.5 | 9.6 | 0.00 | 0.00 | 0.00 | 51 | 1015.6 |
| 20260509183003 | 64 | 106 | 3.5 | 8.7 | 0.00 | 0.00 | 0.00 | 52 | 1015.6 |
| 20260509182003 | 64 | 101 | 4.3 | 9.6 | 0.00 | 0.00 | 0.00 | 52 | 1015.5 |
| 20260509181004 | 64 | 112 | 5.2 | 10.4 | 0.00 | 0.00 | 0.00 | 52 | 1015.3 |
| 20260509180004 | 65 | 107 | 5.2 | 10.4 | 0.00 | 0.00 | 0.00 | 52 | 1015.4 |
| 20260509174003 | 65 | 108 | 4.3 | 10.4 | 0.00 | 0.00 | 0.00 | 51 | 1015.1 |
| 20260509172003 | 67 | 106 | 3.5 | 7.8 | 0.00 | 0.00 | 0.00 | 48 | 1015.0 |
| 20260509171004 | 68 | 102 | 3.5 | 8.7 | 0.00 | 0.00 | 0.00 | 46 | 1015.2 |
| 20260509170003 | 68 | 84 | 3.5 | 7.0 | 0.00 | 0.00 | 0.00 | 46 | 1015.2 |
| 20260509165003 | 68 | 78 | 3.5 | 8.7 | 0.00 | 0.00 | 0.00 | 46 | 1015.2 |
| 20260509164003 | 68 | 67 | 3.5 | 9.6 | 0.00 | 0.00 | 0.00 | 45 | 1015.1 |
| 20260509163002 | 68 | 72 | 4.3 | 9.6 | 0.00 | 0.00 | 0.00 | 45 | 1015.1 |
| 20260509162004 | 68 | 69 | 2.6 | 7.8 | 0.00 | 0.00 | 0.00 | 45 | 1015.2 |
| 20260509161004 | 67 | 77 | 3.5 | 7.8 | 0.00 | 0.00 | 0.00 | 46 | 1015.2 |
| 20260509160003 | 67 | 88 | 4.3 | 9.6 | 0.00 | 0.00 | 0.00 | 47 | 1015.3 |
| 20260509155002 | 68 | 84 | 2.6 | 10.4 | 0.00 | 0.00 | 0.00 | 45 | 1015.4 |
| 20260509154003 | 68 | 79 | 2.6 | 6.1 | 0.00 | 0.00 | 0.00 | 46 | 1015.4 |
| 20260509153004 | 68 | 72 | 4.3 | 7.8 | 0.00 | 0.00 | 0.00 | 44 | 1015.6 |
| 20260509152003 | 68 | 80 | 3.5 | 8.7 | 0.00 | 0.00 | 0.00 | 44 | 1015.6 |
| 20260509151003 | 69 | 90 | 3.5 | 8.7 | 0.00 | 0.00 | 0.00 | 44 | 1015.4 |
| 20260509150003 | 68 | 83 | 2.6 | 7.8 | 0.00 | 0.00 | 0.00 | 46 | 1015.4 |
| 20260509144003 | 68 | 76 | 3.5 | 8.7 | 0.00 | 0.00 | 0.00 | 45 | 1015.4 |
| 20260509143003 | 69 | 63 | 2.6 | 7.8 | 0.00 | 0.00 | 0.00 | 45 | 1015.2 |
| 20260509142003 | 68 | 66 | 4.3 | 7.8 | 0.00 | 0.00 | 0.00 | 44 | 1015.2 |
| 20260509141003 | 68 | 104 | 3.5 | 11.3 | 0.00 | 0.00 | 0.00 | 44 | 1015.3 |